Location: Brno
(49.2000°N, 16.6330°E)
Time: 01:06:45
(UTC+02:00)

Transit 4A - Pass Details

Date: 27 July 2021
Orbit: 870 x 974 km, 66.8° (Epoch: 26 September)

Event Time Altitude Azimuth Distance (km) Brightness Sun altitude
Rises 03:17:18 0° 238° (WSW) 3,487 - -15.1°
Reaches altitude 10° 03:19:56 10° 245° (WSW) 2,539 - -14.9°
Exits shadow 03:21:00 15° 249° (WSW) 2,178 9.4 -14.8°
Maximum altitude 03:25:30 43° 316° (NW) 1,204 8.6 -14.4°
Drops below altitude 10° 03:31:03 10° 28° (NNE) 2,527 11.6 -13.8°
Sets 03:33:40 0° 35° (NE) 3,469 12.9 -13.6°
